OK4PZ-4 Weather Reports


time (UTC)temp
F
wind
direction
speed
knots
gust
knots
rain 1hr
in
rain 24hr
in
rain mn
in
humidity
%
barometer
mb
20260505100513 93 337 0.0 3.5 0.00 0.00 0.00 22 1003.6
20260505090307 91 315 0.0 2.6 0.00 0.00 0.00 28 1004.2
20260505085914 90 135 0.0 0.9 0.00 0.00 0.00 29 1004.3
20260505075711 83 137 0.0 1.7 0.00 0.00 0.00 37 0.1
20260505075708 83 137 0.0 1.7 0.00 0.00 0.00 37 1004.8
20260505065109 75 0 0.9 2.6 0.00 0.00 0.00 54 1005.4
20260505054509 61 150 0.9 2.6 0.00 0.00 0.00 83 1005.9
20260505033704 57 163 0.0 0.0 0.00 0.00 0.00 82 1006.3
20260505033311 57 180 0.0 0.9 0.00 0.00 0.00 82 1006.2
20260505023104 60 135 0.0 0.0 0.00 0.00 0.00 72 1006.5
20260505022712 61 180 0.0 0.0 0.00 0.00 0.00 72 1006.6
20260505012506 63 135 0.0 0.0 0.00 0.00 0.00 65 1006.6
20260505001906 65 161 0.0 1.7 0.00 0.00 0.00 59 1006.8
20260504231307 67 180 0.0 0.9 0.00 0.00 0.00 54 1007.6
20260504220708 68 270 0.0 0.9 0.00 0.00 0.00 51 1008.0
20260504210501 70 333 1.7 3.5 0.00 0.00 0.00 45 1008.4
20260504210109 70 333 1.7 7.0 0.00 0.00 0.00 45 1008.4
20260504195902 72 180 0.0 0.9 0.00 0.00 0.00 39 1007.9
20260504185304 74 16 0.0 0.9 0.00 0.00 0.00 35 1007.5
20260504174704 80 11 2.6 3.5 0.00 0.00 0.00 27 1007.2